[[{"header":{"parameterUnit":"m.s-1","parameterCategory":1,"la1":30.2991,"la2":30.254,"lo1":-89.0895,"lo2":-89.0444,"dx":0.0017,"dy":0.0017,"nx":28,"ny":28,"refTime":"2023-01-30T15:00:00:Z","depth":0,"parameterNumber":2,"parameterNumberName":"U-component_of_WINDS"},"data":[0,0,0,0,0,0,0,0,0,0,0,0,0,0,0,0,0,0,0,0,0,0,0,0,0,0,0,0,0,0,0,0,0,0,0,0,0,0,0,0,0,0,0,0,0,0,0,0,0,0,0,0,0,0,0,0,0,0,0.7121,0.7121,0,0.7118,0.7118,0.7118,0.7114,0.7114,0.7114,0.7114,0.7111,0.7111,0.7111,0,0,0,0,0,0,0,0,0,0,0,0,0,0.7126,0.7125,0.7121,0.7121,0.7121,0.7118,0.7118,0.7118,0.7114,0.7114,0.7114,0.7114,0.7111,0.7111,0.7111,0,0,0,0,0,0,0,0,0,0,0,0,0,0.7123,0.7125,0.7121,0.7119,0.7118,0.7118,0.7118,0.7118,0.7114,0.7114,0.7114,0.7114,0.7111,0.7111,0.7111,0.7113,0,0,0.7111,0.7111,0,0,0,0,0,0,0,0,0.7123,0.7123,0.7119,0.7119,0.7119,0.7116,0.7119,0.7116,0.7114,0.7116,0.7114,0.7114,0.7113,0.7113,0.7112,0.7113,0.7113,0.7111,0.7111,0.7111,0.7111,0,0,0,0,0,0,0,0.7124,0.7123,0.712,0.7119,0.7119,0.7119,0.7118,0.7118,0.7115,0.7116,0.7115,0.7115,0.7113,0.7112,0.7112,0.7113,0.7111,0.7111,0.7111,0.7111,0.7118,0.7119,0,0,0,0,0,0,0.7124,0.7123,0.712,0.712,0.7121,0.7119,0.7118,0.7117,0.7115,0.7114,0.7115,0.7115,0.7112,0.7112,0.7112,0.7117,0.7111,0.7111,0.7111,0.7118,0.7118,0.7119,0,0,0,0,0,0,0.7124,0.7124,0.712,0.7122,0.7121,0.7119,0.7118,0.7117,0.7117,0.7115,0.7114,0.7115,0.7112,0.7112,0.7114,0.7116,0.7111,0.7111,0.7118,0.7118,0.7119,0.7124,0,0,0,0,0,0,0.7124,0.7124,0.7124,0.7122,0.7121,0.7121,0.7118,0.7117,0.7117,0.7116,0.7115,0.7114,0.7112,0.7114,0.7114,0.7116,0.7111,0.7118,0.7118,0.7118,0.7124,0.7125,0.7125,0,0,0,0,0,0.7124,0.7125,0.7124,0.7123,0.7121,0.7121,0.7121,0.7119,0.7117,0.7118,0.7117,0.7114,0.7116,0.7114,0.7114,0.7116,0.7117,0.7118,0.7118,0.7123,0.7124,0.7125,0,0,0,0,0,0,0.7126,0.7124,0.7123,0.7123,0.7122,0.712,0.7121,0.7119,0.7119,0.7119,0.7116,0.7116,0.7118,0.7117,0.7115,0.712,0.7117,0.7117,0.712,0.7121,0.7122,0.7123,0.7111,0,0,0,0,0,0.7127,0.7126,0.7125,0.7125,0.7125,0.7123,0.7123,0.7122,0.7121,0.7121,0.712,0.7119,0.712,0.7121,0.7121,0.7124,0.7125,0.7126,0.7127,0.7127,0.7128,0.7132,0.7133,0.712,0.712,0.712,0,0,0.7127,0.7126,0.7126,0.7125,0.7125,0.7126,0.7123,0.7123,0.7124,0.7121,0.7122,0.7122,0.7122,0.7125,0.7126,0.7124,0.7132,0.7128,0.7129,0.7129,0.7133,0.7134,0.7135,0.712,0.712,0.712,0,0,0.7129,0.7128,0.7129,0.7129,0.7129,0.7128,0.7129,0.7128,0.7128,0.7129,0.7128,0.713,0.713,0.7131,0.7132,0.7138,0.7136,0.7138,0.7142,0.7147,0.7148,0.7149,0.7153,0.7154,0.7139,0.7139,0.7139,0,0.713,0.7131,0.7129,0.7131,0.7132,0.713,0.7132,0.7132,0.7132,0.7133,0.7131,0.7134,0.7134,0.7138,0.714,0.714,0.7141,0.7138,0.7148,0.7148,0.7149,0.7153,0.7155,0.7139,0.7139,0.7139,0.7139,0,0.7133,0.7134,0.7135,0.7136,0.7137,0.7139,0.7139,0.714,0.714,0.714,0.7143,0.7143,0.7145,0.7146,0.7144,0.7151,0.715,0.7148,0.7144,0.7151,0.7155,0.7156,0.7139,0.7139,0.7139,0.7139,0,0,0.7134,0.7137,0.7137,0.7139,0.714,0.7142,0.7144,0.7147,0.7149,0.715,0.7153,0.7155,0.7155,0.7155,0.7154,0.7158,0.7166,0.7156,0.7156,0.7159,0.7175,0.7178,0.7179,0.7165,0.7165,0.7165,0.7176,0,0.7137,0.7142,0.7142,0.7147,0.7149,0.7149,0.7152,0.7154,0.7155,0.7157,0.7158,0.7161,0.7158,0.7159,0.7163,0.7164,0.7169,0.7163,0.7169,0.7169,0.717,0.7181,0.7182,0.7192,0.7177,0.7177,0.7177,0,0.714,0.7143,0.7148,0.7152,0.7153,0.7156,0.716,0.7162,0.7165,0.7166,0.7168,0.7168,0.7172,0.7169,0.7177,0.7173,0.7175,0.7177,0.7177,0.7178,0.7174,0.7183,0.7195,0.7197,0.7179,0.7179,0.7179,0,0.7143,0.7148,0.7152,0.7154,0.7158,0.716,0.7162,0.7165,0.7167,0.7171,0.7173,0.7177,0.7179,0.7183,0.7184,0.7181,0.7192,0.7188,0.7194,0.7194,0.7196,0.7196,0.721,0.7197,0.7197,0.7197,0.7197,0,0.7147,0.715,0.7154,0.7157,0.7162,0.7163,0.7168,0.717,0.7173,0.7178,0.7177,0.7181,0.7183,0.7187,0.7189,0.7196,0.7196,0.7198,0.7198,0.7199,0.7199,0.7201,0.72,0.7197,0.7197,0.7197,0.7197,0,0.715,0.7152,0.7157,0.7162,0.7163,0.7167,0.7171,0.7175,0.7177,0.7183,0.7184,0.7187,0.7193,0.7195,0.7201,0.7203,0.7212,0.7211,0.7211,0.7211,0.7217,0.7217,0.7233,0.7236,0.722,0.722,0.722,0,0.7152,0.7155,0.7161,0.7164,0.7167,0.7172,0.7175,0.7177,0.7181,0.7186,0.719,0.7196,0.7201,0.7211,0.7214,0.722,0.722,0.7225,0.7221,0.7222,0.7222,0.7222,0.7223,0.7226,0.7226,0.7227,0.7227,0,0.7157,0.7159,0.7163,0.717,0.7174,0.7179,0.7183,0.7186,0.7189,0.7193,0.72,0.7204,0.7212,0.7219,0.7226,0.7229,0.7229,0.7228,0.723,0.7231,0.7231,0.7233,0.7214,0.7228,0.7228,0.7228,0.7228,0.7227,0.7161,0.7165,0.717,0.7177,0.7181,0.7186,0.719,0.7194,0.72,0.7207,0.7208,0.7216,0.7222,0.7231,0.7235,0.7241,0.724,0.7242,0.7243,0.7244,0.7245,0.723,0.7242,0.7242,0.7242,0.7242,0.7242,0,0.7167,0.7171,0.7177,0.7185,0.719,0.7191,0.7197,0.7201,0.7208,0.7214,0.722,0.7229,0.7236,0.7241,0.7249,0.7254,0.7254,0.7256,0.7256,0.7257,0.7245,0.7243,0.7255,0.7255,0.7255,0.7255,0.7255,0.7255,0.7171,0.7179,0.7182,0.7192,0.7197,0.7205,0.7209,0.7214,0.7219,0.7229,0.7236,0.724,0.7246,0.7254,0.7262,0.7263,0.7267,0.7269,0.727,0.7259,0.7257,0.7256,0.7255,0.7269,0.7269,0.7282,0.7282,0.7282]},{"header":{"parameterUnit":"m.s-1","parameterCategory":1,"la1":30.2991,"la2":30.254,"lo1":-89.0895,"lo2":-89.0444,"dx":0.0017,"dy":0.0017,"nx":28,"ny":28,"refTime":"2023-01-30T15:00:00:Z","depth":0,"parameterNumber":3,"parameterNumberName":"V-component_of_WINDS"},"data":[0,0,0,0,0,0,0,0,0,0,0,0,0,0,0,0,0,0,0,0,0,0,0,0,0,0,0,0,0,0,0,0,0,0,0,0,0,0,0,0,0,0,0,0,0,0,0,0,0,0,0,0,0,0,0,0,0,0,2.1184,2.1185,0,2.1272,2.1273,2.1274,2.1278,2.1277,2.1276,2.1275,2.1363,2.1366,2.137,0,0,0,0,0,0,0,0,0,0,0,0,0,2.1017,2.102,2.1184,2.1185,2.1186,2.1271,2.1273,2.1274,2.1278,2.1277,2.1276,2.1275,2.1362,2.1366,2.137,0,0,0,0,0,0,0,0,0,0,0,0,0,2.1096,2.1021,2.1183,2.1198,2.1201,2.1271,2.1273,2.1274,2.1279,2.1277,2.1276,2.1274,2.1361,2.1366,2.1371,2.1431,0,0,2.1386,2.1388,0,0,0,0,0,0,0,0,2.1091,2.1102,2.1195,2.1198,2.12,2.1262,2.1246,2.1327,2.1279,2.1249,2.1275,2.1273,2.1331,2.1338,2.1358,2.1436,2.1439,2.1386,2.1389,2.1391,2.1393,0,0,0,0,0,0,0,2.1086,2.1098,2.1218,2.1196,2.12,2.12,2.121,2.1262,2.1297,2.1252,2.1252,2.1263,2.1332,2.1353,2.136,2.1441,2.1386,2.139,2.1393,2.1395,2.1573,2.1574,0,0,0,0,0,0,2.1078,2.1093,2.1216,2.1221,2.1141,2.1204,2.1215,2.1244,2.1297,2.1303,2.1264,2.1262,2.1345,2.1354,2.1363,2.1439,2.1391,2.1396,2.1399,2.1571,2.1573,2.1575,0,0,0,0,0,0,2.1074,2.1089,2.1212,2.1157,2.1173,2.1209,2.1241,2.1246,2.1268,2.1306,2.1312,2.1279,2.1345,2.1356,2.1415,2.1442,2.1398,2.1402,2.1569,2.1572,2.1574,2.1589,0,0,0,0,0,0,2.1069,2.1087,2.1111,2.1158,2.1176,2.1263,2.1243,2.1249,2.1277,2.1276,2.1322,2.1328,2.1344,2.1407,2.142,2.1448,2.1406,2.1567,2.157,2.1573,2.1587,2.1592,2.1597,0,0,0,0,0,2.1063,2.1112,2.1113,2.1127,2.1207,2.1264,2.1275,2.1293,2.1279,2.1303,2.1327,2.1327,2.1436,2.1413,2.1427,2.1457,2.1565,2.1569,2.1573,2.1584,2.1591,2.1597,0,0,0,0,0,0,2.1067,2.1118,2.112,2.1185,2.122,2.1265,2.1296,2.1299,2.1339,2.1337,2.1356,2.1367,2.1425,2.1447,2.142,2.1519,2.1499,2.1506,2.1503,2.151,2.1515,2.1509,2.141,0,0,0,0,0,2.1075,2.1118,2.116,2.1213,2.1231,2.1261,2.1286,2.1297,2.1334,2.1349,2.1378,2.1414,2.1456,2.1484,2.1525,2.1589,2.16,2.1617,2.1622,2.1626,2.1632,2.1668,2.1676,2.1588,2.1588,2.1588,0,0,2.1093,2.1126,2.1152,2.1215,2.1244,2.1287,2.1273,2.132,2.1352,2.1356,2.1414,2.1436,2.1477,2.1539,2.1567,2.1558,2.1658,2.1631,2.1634,2.1638,2.1673,2.1681,2.1689,2.1591,2.159,2.159,0,0,2.1147,2.1177,2.1225,2.1254,2.1298,2.1317,2.1329,2.1373,2.1388,2.1446,2.145,2.1488,2.1561,2.1591,2.1615,2.168,2.1681,2.1693,2.172,2.1755,2.1762,2.1768,2.1792,2.1801,2.1698,2.1698,2.1698,0,2.1164,2.123,2.1249,2.1296,2.1323,2.1329,2.1378,2.1405,2.146,2.1478,2.1468,2.1559,2.1587,2.1656,2.1672,2.1691,2.1705,2.1688,2.176,2.1766,2.1772,2.1796,2.1804,2.17,2.1699,2.1699,2.1699,0,2.1248,2.1294,2.1328,2.1382,2.1413,2.146,2.1485,2.1514,2.1522,2.1542,2.1601,2.1634,2.1683,2.1699,2.1707,2.177,2.1763,2.1756,2.1736,2.1782,2.1804,2.1813,2.1701,2.1701,2.1701,2.17,0,0,2.1309,2.1372,2.1384,2.1409,2.1458,2.1494,2.1541,2.1589,2.1614,2.1651,2.1691,2.1752,2.1746,2.1773,2.1784,2.1815,2.1865,2.1804,2.1805,2.1815,2.1937,2.1943,2.1953,2.1865,2.1867,2.1868,2.1934,0,2.137,2.1456,2.1473,2.1547,2.159,2.1596,2.1637,2.1671,2.1691,2.1729,2.175,2.1794,2.1782,2.1799,2.1829,2.1853,2.189,2.1848,2.1903,2.1905,2.1894,2.1965,2.1971,2.2032,2.1942,2.1944,2.1945,0,2.1453,2.1494,2.1572,2.1616,2.1634,2.1671,2.1717,2.1753,2.1792,2.1804,2.1834,2.1842,2.1891,2.1868,2.1935,2.1906,2.1929,2.1944,2.1947,2.1954,2.1929,2.1975,2.2051,2.2061,2.1958,2.1957,2.1956,0,2.1491,2.1564,2.1621,2.1642,2.1694,2.172,2.1742,2.1779,2.1807,2.1846,2.1864,2.1908,2.1932,2.1966,2.1984,2.1966,2.2051,2.2029,2.2062,2.2062,2.2081,2.208,2.2164,2.2094,2.2093,2.2093,2.2093,0,2.1558,2.1606,2.1639,2.1674,2.1728,2.1747,2.1799,2.1822,2.1854,2.1893,2.19,2.1936,2.1958,2.1997,2.2011,2.2066,2.2076,2.2087,2.2091,2.2088,2.2086,2.2104,2.2101,2.2096,2.2095,2.2095,2.2094,0,2.161,2.1634,2.1697,2.174,2.1753,2.179,2.1828,2.1861,2.1881,2.193,2.1942,2.1973,2.2019,2.2041,2.2098,2.2107,2.2169,2.2169,2.2157,2.2159,2.2191,2.2188,2.229,2.2305,2.2224,2.2224,2.2225,0,2.1652,2.169,2.1738,2.1765,2.1789,2.1832,2.186,2.188,2.1909,2.1955,2.1984,2.203,2.2069,2.2143,2.2169,2.2213,2.2215,2.2248,2.2221,2.2217,2.2217,2.2215,2.2219,2.2253,2.2254,2.2254,2.2255,0,2.1725,2.1735,2.1777,2.1823,2.1857,2.1893,2.1929,2.1951,2.1976,2.2008,2.2056,2.2086,2.2145,2.2191,2.2237,2.2259,2.2261,2.2262,2.2273,2.2271,2.2263,2.2269,2.2171,2.226,2.226,2.2259,2.2259,2.2259,2.1775,2.1808,2.1848,2.1894,2.1923,2.1956,2.1991,2.2014,2.2055,2.2105,2.2114,2.2165,2.2201,2.2263,2.2287,2.2326,2.2319,2.2333,2.2337,2.2341,2.2343,2.2255,2.2334,2.2334,2.2334,2.2334,2.2334,0,2.1849,2.1875,2.1917,2.1967,2.2003,2.2002,2.2042,2.2072,2.2118,2.2152,2.219,2.2245,2.229,2.232,2.2365,2.2391,2.2394,2.2403,2.2402,2.2407,2.2347,2.2334,2.24,2.24,2.24,2.24,2.24,2.24,2.1892,2.1949,2.1964,2.2036,2.206,2.2112,2.2134,2.2165,2.2193,2.2255,2.2292,2.2312,2.2344,2.2392,2.2433,2.244,2.2457,2.2467,2.2474,2.2418,2.2411,2.2405,2.2393,2.247,2.247,2.2531,2.2532,2.2532]}]]